Location: Tel Aviv
(32.0670°N, 34.7670°E)
Time: 23:34:25
(UTC+03:00)

NOAA 15 - Visible Passes

Search period start: 30 March 2023 00:00
Search period end: 09 April 2023 00:00
Orbit: 796 x 812 km, 98.6° (Epoch: 30 March)

Date Brightness Start Highest point End Pass type
(mag) Time Alt. Az. Time Alt. Az. Time Alt. Az.
30 Mar 6.5 20:32:28 10° SSW 20:37:00 29° W 20:41:33 10° NW visible
31 Mar 5.4 20:06:22 10° S 20:11:30 52° W 20:16:41 10° NNW visible
01 Apr 4.6 19:40:48 10° SSE 19:46:06 86° ENE 19:51:25 10° NNW visible
02 Apr 7.3 20:57:26 10° SW 21:00:41 16° W 21:03:57 10° NW visible
03 Apr 6.5 20:30:32 10° SSW 20:35:07 30° W 20:39:44 10° NW visible
04 Apr 5.4 20:04:27 10° S 20:09:37 55° W 20:14:49 10° NNW visible
05 Apr 4.6 19:38:56 10° SSE 19:44:13 83° ENE 19:49:32 10° N visible
06 Apr 7.3 20:55:24 10° SW 20:58:47 17° W 21:02:12 10° NW visible
07 Apr 6.4 20:28:35 10° SSW 20:33:13 31° W 20:37:53 10° NW visible
08 Apr 5.3 20:02:33 10° S 20:07:44 57° W 20:12:56 10° NNW visible
